Regional Weather Roundup
Issued by NWS Charleston, SC

Current Version | Previous Version | Graphics & Text | Print | Product List | Glossary On
Versions: 1 2 3 4 5 6 7 8 9 10 11 12 13 14 15 16 17 18 19 20 21 22 23 24 25 26 27 28 29 30 31 32 33 34 35 36 37 38 39 40 41 42 43 44 45 46 47 48 49 50
000
ASUS42 KCHS 032312
RWRCHS

REGIONAL WEATHER ROUNDUP
NATIONAL WEATHER SERVICE CHARLESTON SC
700 PM EDT SUN MAY 03 2015

NOTE: "FAIR" INDICATES FEW OR NO CLOUDS BELOW 12,000 FEET WITH NO
SIGNIFICANT WEATHER AND/OR OBSTRUCTIONS TO VISIBILITY.

NOT ALL STATIONS ARE QUALITY CONTROLLED BY THE NATIONAL
WEATHER SERVICE. USE DATA WITH CAUTION...ESPECIALLY
DEWPOINT OBSERVATIONS.

SCZ027-030-031-034>040-042>050-040000-
...SOUTHEAST SOUTH CAROLINA...

CITY           SKY/WX    TMP DP  RH WIND       PRES   REMARKS
N CHARLESTON   MOSUNNY   75  52  44 S12       30.16S
WATERFRONT PRK NOT AVBL
MOUNT PLEASANT FAIR      72  61  68 MISG      30.17S
PINOPOLIS      NOT AVBL
MONCKS CORNER  FAIR      77  55  47 SE6       30.15S
SUMMERVILLE    FAIR      77  55  47 SE3       30.15S
BEAUFORT MCAS  SUNNY     76  57  51 S5        30.15S
BEAUFORT ARPT  FAIR      73  54  49 CALM      30.15S
HILTON HEAD IS SUNNY     75  55  50 S5        30.17S
WALTERBORO     CLEAR     75  54  46 SE3       30.15S
ALLENDALE      FAIR      79  50  36 CALM      30.13S

...SOUTHERN MIDLANDS AND PEE DEE...

CITY           SKY/WX    TMP DP  RH WIND       PRES   REMARKS
GEORGETOWN     NOT AVBL
KINGSTREE      NOT AVBL
ORANGEBURG     CLOUDY    78  50  37 SE6       30.14S
BARNWELL       FAIR      81  48  32 S3        30.14S
AIKEN          FAIR      77  43  29 SW3       30.17S
MANNING        FAIR      77  45  31 CALM      30.14S
COLUMBIA       PTSUNNY   78  48  34 SE3       30.13S
SUMTER         SUNNY     77  48  35 SE3       30.13R
FLORENCE       MOSUNNY   78  46  32 SE5       30.14S
MYRTLE BEACH   SUNNY     72  59  64 S15       30.20S
N MYRTLE BEACH SUNNY     71  55  56 SE6       30.19R

$$

GAZ063-065-086>088-099>101-113>116-118-119-134>141-150-040000-
...SOUTHEAST GEORGIA...

CITY           SKY/WX    TMP DP  RH WIND       PRES   REMARKS
SAVANNAH ARPT  MOSUNNY   77  46  33 S9        30.15S
HUNTER AAF     SUNNY     75  51  42 S10       30.13S
FORT STEWART   SUNNY     77  50  38 SE7       30.13S
STATESBORO       N/A     80  49  34 CALM      30.14S
SYLVANIA       CLOUDY    79  52  39 CALM      30.15S
CLAXTON        FAIR      79  52  38 CALM      30.14S

...CSRA...CENTRAL AND FAR SOUTHEAST GEORGIA...

CITY           SKY/WX    TMP DP  RH WIND       PRES   REMARKS
THOMSON        PTSUNNY   79  57  46 CALM      30.18S
AUGUSTA-BUSH   MOSUNNY   78  50  37 E3        30.13S
AUGUSTA-DANIEL MOSUNNY   79  48  33 SW6       30.14S
SWAINSBORO     NOT AVBL
VIDALIA        SUNNY     77  52  41 S3        30.15R
EASTMAN        FAIR      80  50  34 SE3       30.16R
HAZLEHURST     FAIR      80  48  32 SE5       30.13S
ALMA           SUNNY     77  51  40 SE3       30.13S
WAYCROSS       SUNNY     80  52  37 SE7       30.14R
JESUP          FAIR      79  50  36 S7        30.15S
BAXLEY         FAIR      75  59  57 CALM      30.13S
BRUNSWICK      SUNNY     77  41  27 E9        30.17S
SAINT SIMONS   SUNNY     74  49  41 SE7       30.17S

$$

SCZ027-028-034-036>038-045-046-048>050-GAZ119-141-040000-
...LAKE AND SUPPLEMENTAL COASTAL OBSERVATIONS...

STATION/POSITION TIME  TEMP    WIND        PRES    WAVE   SWELL
                       AIR SEA DIR/SP/G            HT/PER HT/PER/DIR
                 (UTC) (F)     (DEG/KT/KT) (MB)    (FT/S) (FT/S/D)
UPR LAKE MARION  NOT AVBL
WINYAH BAY       2145   71     130/  9     1021.0
LAKE MURRAY      2200   89     160/  1/  2 1019.6F
ACE BASIN NERRS  NOT AVBL
FORT PULASKI     2212   75 69  150/  6/  9 1021.8F
SAPELO ISLAND    2200   79     150/  7     1021.0S

$$

ANZ835-935-AMZ111-154-330-350-352-354-370-450-454-472-040000-
...C-MAN AND BUOY OBSERVATIONS...

STATION/POSITION TIME  TEMP    WIND        PRES    WAVE   SWELL
                       AIR SEA DIR/SP/G            HT/PER HT/PER/DIR
                 (UTC) (F)     (DEG/KT/KT) (MB)    (FT/S) (FT/S/D)
BUOY 41004       2250   72 76  140/  6/  8 1021.7R   2/10   2/10
BUOY 41008       2250   73 75  180/  4/  4 1021.9S   3/12   3/ 80/12
FOLLY BEACH CMAN 2200   71     180/  8/  9 1021.6S
CAPERS NEARSHORE 2208   71     160/  8/ 10 1021.6S
FRIPP NEARSHORE  2200   73     190/ 10/ 10 1020.7F


STATION/POSITION TIME  TEMP    WIND        PRES    WAVE   SWELL
                       AIR SEA DIR/SP/G            HT/PER HT/PER/DIR
                 (UTC) (F)     (DEG/KT/KT) (MB)    (FT/S) (FT/S/D)
5E ST. MARYS GA  2221      75                N/A     2/11   2/ 70/11
FRYING PAN BUOY  2250   73 74  130/  4/  6 1023.1R   4/12   3/100/12
BUOY 41025       2250   67 61  220/  4/  6 1022.2R   5/ 9   5/ 60/ 9
CAPE LOOKOUT NC  2200   71     200/  8/ 10 1021.8R
BUOY 41002       2250   69 70   30/ 14/ 16 1022.7R   9/11   8/ 20/11
BUOY 41010       2220   73 78   70/ 12/ 14 1021.4R
ST AUGUSTINE FL  2300   72 73   90/  7/  8 1022.3R


$$



USA.gov is the U.S. government's official web portal to all federal, state and local government web resources and services.